Location: Audinghen
(50.8518°N, 1.6129°E)
Time: 20:02:40
(UTC+00:00)

Cosmos 1538 Rocket - Pass Details

Date: 07 August 2020
Orbit: 752 x 792 km, 74.0° (Epoch: 21 September)

Event Time Altitude Azimuth Distance (km) Brightness Sun altitude
Rises 01:26:20 0° 334° (NNW) 3,218 7.8 -20.2°
Reaches altitude 10° 01:28:42 10° 332° (NNW) 2,288 7.0 -20.0°
Maximum altitude 01:33:51 70° 250° (WSW) 802 3.9 -19.7°
Enters shadow 01:35:58 36° 176° (S) 1,192 4.5 -19.6°
